Location: Memphis
(29.8667°N, 31.2500°E)
Time: 08:00:20
(UTC+00:00)

Cosmos 1959 Rocket - Pass Details

Date: 03 March 2021
Orbit: 948 x 996 km, 83.0° (Epoch: 15 April)

Event Time Altitude Azimuth Distance (km) Brightness Sun altitude
Rises 17:20:26 0° 175° (S) 3,612 7.4 -19.2°
Reaches altitude 10° 17:22:56 10° 172° (S) 2,666 6.7 -19.7°
Maximum altitude 17:28:56 64° 93° (E) 1,046 4.3 -21.0°
Drops below altitude 10° 17:34:57 10° 13° (NNE) 2,674 6.7 -22.3°
Sets 17:37:28 0° 10° (N) 3,625 7.4 -22.9°
